(495558) = 2014 WO241

Discovered at Haleakala on 2014-11-20 by Pan-STARRS 1.

Orbit

Orbit type: Main Belt

Note: WebGL enabled browser required.

epoch2024-03-31.0
epoch JD2460400.5
perihelion date2026-05-17.87980
perihelion JD2461178.37980
argument of perihelion (°)338.22766
ascending node (°)140.79831
inclination (°)12.82444
eccentricity0.0384335
perihelion distance (AU)2.9581808
Tisserand w.r.t. Jupiter3.2
ΔV w.r.t. Earth (km/sec)11.4
semimajor axis (AU)3.0764181
mean anomaly (°)217.91498
mean daily motion (°/day)0.18265680
aphelion distance (AU)3.195
period (years)5.4
P-vector [x]-0.49105422
P-vector [y]0.82841708
P-vector [z]0.26942697
Q-vector [x]-0.85975787
Q-vector [y]-0.51069149
Q-vector [z]0.00325811
absolute magnitude16.5
phase slope0.15
uncertainty0
referenceMPEC 2024-C128
observations used199
oppositions10
arc length (days)6281
first opposition used2005
last opposition used2022
residual rms (arc-secs)0.74
perturbers coarse indicatorM-v
perturbers precise indicator003Ek
first observation date used2005-03-16.0
last observation date used2022-05-27.0
computer nameMPCLINUX
Minimum Orbit Intersection Distances (in AU)
for orbit epoch: 2460200.5, reference: E2024-CC8
Mercury2.61926
Venus2.24631
Earth1.97584
Mars1.30782
Jupiter1.8369
Saturn6.13283
Uranus15.4637
Neptune26.7804

Observations

202 total observations over interval: 2005 03 16.25037 – 2022 05 27.261365
These data are available for download (format description).

Date (UT) J2000 RA J2000 Dec Magn Location Ref
2005 03 16.25037 09 24 03.96 +18 03 01.0 20.4 R G96 – Mt. Lemmon Survey MPS 752252
2005 03 16.25701 09 24 03.84 +18 03 02.8 20.4 R G96 – Mt. Lemmon Survey MPS 752252
2005 03 16.26366 09 24 03.66 +18 03 04.3 20.8 R G96 – Mt. Lemmon Survey MPS 752252
2005 03 16.27032 09 24 03.52 +18 03 06.3 20.8 R G96 – Mt. Lemmon Survey MPS 752252
2011 04 13.27401 13 10 44.76 +09 23 58.6 20.8 V G96 – Mt. Lemmon Survey MPS 752252
2011 04 13.28141 13 10 44.43 +09 24 01.2 20.1 V G96 – Mt. Lemmon Survey MPS 752252
2011 04 13.28873 13 10 44.07 +09 24 03.7 20.6 V G96 – Mt. Lemmon Survey MPS 752252
2011 04 13.29610 13 10 43.78 +09 24 06.0 20.7 V G96 – Mt. Lemmon Survey MPS 752252
2013 08 14.49874 23 57 02.595 -08 31 36.33 21.3 w F51 – Pan-STARRS 1, Haleakala MPS 752252
2013 08 14.51279 23 57 02.293 -08 31 42.30 21.3 w F51 – Pan-STARRS 1, Haleakala MPS 752252
2013 08 14.52686 23 57 01.985 -08 31 48.25 21.0 w F51 – Pan-STARRS 1, Haleakala MPS 752252
2013 08 14.54089 23 57 01.690 -08 31 54.27 21.1 w F51 – Pan-STARRS 1, Haleakala MPS 752252
2014 11 20.51818 05 08 58.984 +05 14 34.72 20.8 w F51 – Pan-STARRS 1, Haleakala MPS 548164
2014 11 20.53149 05 08 58.398 +05 14 33.10 20.9 w F51 – Pan-STARRS 1, Haleakala MPS 548164
2014 11 20.54476 05 08 57.805 +05 14 31.51 20.8 w F51 – Pan-STARRS 1, Haleakala MPS 548164
2014 11 20.55813 05 08 57.197 +05 14 29.95 20.7 w F51 – Pan-STARRS 1, Haleakala MPS 548164
2014 11 23.46452 05 06 48.424 +05 09 14.86 20.5 w F51 – Pan-STARRS 1, Haleakala MPS 548164
2014 11 23.47668 05 06 47.855 +05 09 13.64 20.6 w F51 – Pan-STARRS 1, Haleakala MPS 548164
2014 11 23.48883 05 06 47.278 +05 09 12.32 20.8 w F51 – Pan-STARRS 1, Haleakala MPS 548164
2014 11 23.50103 05 06 46.707 +05 09 11.15 20.9 w F51 – Pan-STARRS 1, Haleakala MPS 548164
2014 11 30.40997 05 01 18.073 +05 00 54.90 20.4 i F51 – Pan-STARRS 1, Haleakala MPS 551854
2014 11 30.42091 05 01 17.521 +05 00 54.46 20.2 i F51 – Pan-STARRS 1, Haleakala MPS 551854
2014 11 30.43188 05 01 16.982 +05 00 54.12 20.4 i F51 – Pan-STARRS 1, Haleakala MPS 551854
2014 11 30.44292 05 01 16.410 +05 00 53.60 20.4 i F51 – Pan-STARRS 1, Haleakala MPS 551854
2014 12 01.37339 05 00 30.529 +05 00 15.83 20.0 i F51 – Pan-STARRS 1, Haleakala MPS 551854
2014 12 01.38633 05 00 29.866 +05 00 14.98 20.6 i F51 – Pan-STARRS 1, Haleakala MPS 551854
2014 12 01.39925 05 00 29.185 +05 00 14.92 20.7 i F51 – Pan-STARRS 1, Haleakala MPS 551854
2014 12 01.41221 05 00 28.550 +05 00 14.03 20.4 i F51 – Pan-STARRS 1, Haleakala MPS 551854
2014 12 15.32459 04 48 52.078 +05 05 33.94 21.0 w F51 – Pan-STARRS 1, Haleakala MPS 553556
2014 12 15.33718 04 48 51.473 +05 05 35.23 20.7 w F51 – Pan-STARRS 1, Haleakala MPS 553556
2014 12 15.34976 04 48 50.829 +05 05 35.99 20.7 w F51 – Pan-STARRS 1, Haleakala MPS 553556
2014 12 15.36241 04 48 50.197 +05 05 37.29 20.6 w F51 – Pan-STARRS 1, Haleakala MPS 553556
2015 01 15.22404 04 30 40.866 +06 51 51.61 21.1 w F51 – Pan-STARRS 1, Haleakala MPS 585722
2015 01 15.23558 04 30 40.654 +06 51 55.22 21.1 w F51 – Pan-STARRS 1, Haleakala MPS 585722
2015 01 15.24707 04 30 40.444 +06 51 58.79 21.2 w F51 – Pan-STARRS 1, Haleakala MPS 585722
2016 01 13.48376 11 16 43.032 +07 58 52.48 21.4 w F51 – Pan-STARRS 1, Haleakala MPS 752252
2016 01 13.49541 11 16 43.048 +07 58 55.79 21.3 w F51 – Pan-STARRS 1, Haleakala MPS 752252
2016 01 13.50716 11 16 43.070 +07 58 58.74 21.4 w F51 – Pan-STARRS 1, Haleakala MPS 752252
2016 02 04.43186 11 12 36.281 +10 10 50.30 21.0 w F51 – Pan-STARRS 1, Haleakala MPS 752252
2016 02 04.44408 11 12 35.963 +10 10 55.94 21.0 w F51 – Pan-STARRS 1, Haleakala MPS 752252
2016 02 04.45633 11 12 35.640 +10 11 01.55 21.0 w F51 – Pan-STARRS 1, Haleakala MPS 752252
2016 02 04.46869 11 12 35.307 +10 11 07.14 21.0 w F51 – Pan-STARRS 1, Haleakala MPS 752252
2016 03 01.38515 10 56 51.380 +13 46 39.20 20.3 r F51 – Pan-STARRS 1, Haleakala MPS 752252
2016 03 01.39710 10 56 50.851 +13 46 45.11 20.4 r F51 – Pan-STARRS 1, Haleakala MPS 752252
2016 03 01.40887 10 56 50.321 +13 46 51.00 20.3 r F51 – Pan-STARRS 1, Haleakala MPS 752252
2016 03 01.42100 10 56 49.765 +13 46 56.90 20.4 r F51 – Pan-STARRS 1, Haleakala MPS 752252
2016 03 06.33328 10 53 17.845 +14 26 45.59 20.6 w F51 – Pan-STARRS 1, Haleakala MPS 752252
2016 03 06.35666 10 53 16.802 +14 26 56.83 20.5 w F51 – Pan-STARRS 1, Haleakala MPS 752252
2016 03 06.36840 10 53 16.287 +14 27 02.41 20.5 w F51 – Pan-STARRS 1, Haleakala MPS 752253
2016 03 08.30217 10 51 53.554 +14 42 05.82 20.3 w F51 – Pan-STARRS 1, Haleakala MPS 752253
2016 03 08.32543 10 51 52.526 +14 42 16.74 20.6 w F51 – Pan-STARRS 1, Haleakala MPS 752253
2016 03 08.34512 10 51 51.669 +14 42 25.76 20.6 w F51 – Pan-STARRS 1, Haleakala MPS 752253
2016 04 03.25084 10 37 06.623 +17 11 32.89 21.1 w F51 – Pan-STARRS 1, Haleakala MPS 752253
2016 04 03.26246 10 37 06.352 +17 11 35.51 21.2 w F51 – Pan-STARRS 1, Haleakala MPS 752253
2016 04 03.27420 10 37 06.080 +17 11 38.06 21.2 w F51 – Pan-STARRS 1, Haleakala MPS 752253
2016 04 03.28596 10 37 05.816 +17 11 40.50 21.0 w F51 – Pan-STARRS 1, Haleakala MPS 752253
2017 04 26.54370 16 42 34.107 -04 26 51.97 21.2 w F51 – Pan-STARRS 1, Haleakala MPS 792987
2017 04 26.55473 16 42 33.817 -04 26 49.13 21.2 w F51 – Pan-STARRS 1, Haleakala MPS 792987
2017 04 26.57671 16 42 33.186 -04 26 44.06 21.2 w F51 – Pan-STARRS 1, Haleakala MPS 792987
2017 05 22.48645 16 25 55.416 -03 07 21.30 21.0 w F51 – Pan-STARRS 1, Haleakala MPS 798025
2017 05 22.49916 16 25 54.815 -03 07 20.25 20.9 w F51 – Pan-STARRS 1, Haleakala MPS 798025
2017 05 22.51186 16 25 54.206 -03 07 18.76 20.9 w F51 – Pan-STARRS 1, Haleakala MPS 798025
2017 05 22.52462 16 25 53.599 -03 07 17.57 20.7 w F51 – Pan-STARRS 1, Haleakala MPS 798025
2017 06 26.25705 16 01 46.57 -03 32 38.9 21.1 V G96 – Mt. Lemmon Survey MPS 803467
2017 06 26.26130 16 01 46.48 -03 32 40.3 22.1 V G96 – Mt. Lemmon Survey MPS 803467
2017 06 26.26556 16 01 46.30 -03 32 40.3 21.9 V G96 – Mt. Lemmon Survey MPS 803467
2017 06 26.26981 16 01 46.15 -03 32 41.1 21.6 V G96 – Mt. Lemmon Survey MPS 803467
2018 06 18.56065 21 53 02.691 -09 54 03.19 22.0 w F51 – Pan-STARRS 1, Haleakala MPS 900324
2018 06 18.57169 21 53 02.745 -09 54 04.47 21.9 w F51 – Pan-STARRS 1, Haleakala MPS 900324
2018 06 18.59377 21 53 02.826 -09 54 06.74 21.9 w F51 – Pan-STARRS 1, Haleakala MPS 900324
2018 07 09.53908 21 50 28.434 -10 58 49.85 21.2 w F51 – Pan-STARRS 1, Haleakala MPS 906038
2018 07 09.55006 21 50 28.195 -10 58 53.01 21.4 w F51 – Pan-STARRS 1, Haleakala MPS 906038
2018 07 09.56103 21 50 27.967 -10 58 55.68 21.6 w F51 – Pan-STARRS 1, Haleakala MPS 906038
2018 07 09.57202 21 50 27.739 -10 58 58.62 21.7 w F51 – Pan-STARRS 1, Haleakala MPS 906038
2018 08 05.40409 21 35 55.529 -13 38 08.56 20.9 w F51 – Pan-STARRS 1, Haleakala MPS 909801
2018 08 05.41590 21 35 55.010 -13 38 13.40 20.7 w F51 – Pan-STARRS 1, Haleakala MPS 909801
2018 08 05.42770 21 35 54.495 -13 38 18.33 20.8 w F51 – Pan-STARRS 1, Haleakala MPS 909801
2018 08 05.43953 21 35 53.979 -13 38 23.30 20.9 w F51 – Pan-STARRS 1, Haleakala MPS 909801
2018 08 06.43768 21 35 11.855 -13 45 18.65 20.8 w F51 – Pan-STARRS 1, Haleakala MPS 909801
2018 08 06.44868 21 35 11.375 -13 45 23.28 20.9 w F51 – Pan-STARRS 1, Haleakala MPS 909801
2018 08 06.45968 21 35 10.892 -13 45 27.79 20.7 w F51 – Pan-STARRS 1, Haleakala MPS 909801
2018 08 06.47068 21 35 10.408 -13 45 32.46 20.7 w F51 – Pan-STARRS 1, Haleakala MPS 909801
2018 08 13.44221 21 30 08.675 -14 34 24.35 20.6 w F51 – Pan-STARRS 1, Haleakala MPS 910968
2018 08 13.45550 21 30 08.081 -14 34 29.89 20.5 w F51 – Pan-STARRS 1, Haleakala MPS 910968
2018 08 13.45615 21 30 08.049 -14 34 30.16 20.4 w F51 – Pan-STARRS 1, Haleakala MPS 910968
2018 08 13.46883 21 30 07.476 -14 34 35.55 20.5 w F51 – Pan-STARRS 1, Haleakala MPS 910968
2018 08 13.46947 21 30 07.443 -14 34 35.85 20.4 w F51 – Pan-STARRS 1, Haleakala MPS 910968
2019 09 27.57866 03 06 40.536 +00 14 08.62 21.2 w F51 – Pan-STARRS 1, Haleakala MPS 1056803
2019 09 27.59172 03 06 40.317 +00 14 03.81 21.3 w F51 – Pan-STARRS 1, Haleakala MPS 1056803
2019 09 27.60474 03 06 40.096 +00 13 58.86 21.3 w F51 – Pan-STARRS 1, Haleakala MPS 1056803
2019 09 27.61773 03 06 39.888 +00 13 53.90 21.1 w F51 – Pan-STARRS 1, Haleakala MPS 1056803
2019 09 28.43836 03 06 26.87 +00 08 44.0 20.7 V 691 – Steward Observatory, Kitt Peak-Spacewatch MPS 1056803
2019 09 28.45977 03 06 26.51 +00 08 35.5 20.9 V 691 – Steward Observatory, Kitt Peak-Spacewatch MPS 1056803
